Temp
-11 -11 -11 -11 -11 -11 -11 -10 -10 -10 -11 -10 -9 -9 -8 -9 -10 -10 -10 -10 -10 -10 -11 -10 -10 -10 -10 -11 -11 -11 -10 -11 -11 -11 -10 -10 -11 -10 -10 -11 -11 -11 -11 -11
-11 -11 -11 -11 -11 -11 -11 -11 -10 -10 -11 -10 -9 -8 -9 -10 -10 -10 -10 -10 -10 -11 -11 -11 -11 -10 -10 -10 -10 -11 -11 -11 -10 -11 -11 -10 -10 -10 -10 -10 -10 -11 -11 -12
-11 -11 -11 -11 -11 -12 -12 -11 -11 -10 -10 -10 -9 -9 -9 -10 -10 -11 -11 -12 -11 -11 -11 -10 -10 -10 -10 -10 -10 -11 -11 -11 -11 -11 -11 -11 -11 -11 -11 -11 -11 -11 -11 -11
-11 -11 -11 -12 -12 -13 -11 -12 -11 -11 -11 -10 -10 -8 -10 -11 -11 -11 -11 -11 -11 -11 -11 -10 -10 -10 -10 -10 -11 -11 -11 -11 -11 -11 -11 -11 -11 -11 -12 -12 -11 -11 -11 -11
-12 -12 -12 -12 -13 -13 -12 -13 -13 -12 -11 -11 -10 -10 -10 -11 -12 -12 -12 -12 -12 -11 -11 -11 -11 -11 -10 -11 -12 -12 -11 -11 -11 -11 -11 -11 -11 -11 -11 -11 -12 -12 -12 -11
-13 -13 -13 -13 -14 -14 -13 -13 -13 -13 -13 -11 -12 -11 -10 -12 -13 -14 -14 -14 -13 -14 -14 -14 -12 -12 -11 -11 -11 -11 -11 -11 -11 -11 -12 -12 -12 -12 -12 -12 -11 -11 -11 -11
-14 -14 -14 -14 -14 -14 -14 -14 -14 -14 -14 -13 -13 -12 -11 -13 -14 -14 -15 -15 -15 -15 -15 -14 -14 -13 -12 -12 -11 -11 -11 -11 -11 -11 -12 -12 -12 -12 -12 -12 -12 -12 -12 -12
-14 -14 -16 -15 -16 -16 -16 -15 -16 -16 -15 -14 -14 -12 -13 -13 -14 -14 -15 -14 -13 -14 -14 -14 -14 -14 -13 -13 -12 -12 -12 -12 -11 -11 -12 -13 -13 -13 -13 -13 -13 -13 -13 -12
-16 -15 -16 -16 -16 -16 -16 -16 -17 -16 -16 -16 -14 -13 -14 -14 -14 -15 -16 -15 -15 -15 -16 -16 -15 -15 -14 -15 -15 -15 -14 -14 -14 -13 -12 -12 -12 -12 -12 -13 -13 -14 -14 -13
-18 -17 -15 -17 -17 -16 -17 -17 -17 -17 -17 -17 -16 -14 -13 -14 -16 -17 -18 -18 -18 -17 -16 -16 -17 -16 -16 -16 -16 -16 -16 -16 -15 -16 -15 -15 -14 -13 -13 -13 -13 -13 -14 -14
-19 -19 -17 -18 -17 -17 -18 -18 -18 -18 -18 -18 -18 -16 -15 -16 -16 -15 -15 -16 -16 -17 -16 -16 -16 -17 -17 -17 -18 -18 -18 -17 -17 -17 -17 -16 -17 -16 -16 -16 -15 -15 -15 -15
-19 -20 -19 -18 -18 -19 -20 -20 -20 -20 -19 -19 -19 -18 -18 -17 -17 -16 -16 -16 -17 -18 -18 -18 -17 -17 -17 -17 -17 -18 -19 -19 -18 -18 -19 -19 -18 -18 -18 -17 -17 -17 -17 -16
-20 -20 -21 -20 -19 -19 -20 -20 -21 -20 -20 -21 -20 -20 -20 -19 -19 -19 -19 -19 -19 -19 -20 -20 -19 -19 -19 -19 -18 -18 -19 -19 -19 -18 -18 -19 -19 -18 -18 -18 -18 -17 -17 -17
-21 -21 -21 -21 -21 -21 -22 -22 -21 -21 -20 -20 -20 -20 -20 -21 -21 -21 -20 -20 -20 -20 -19 -19 -20 -20 -19 -20 -19 -20 -20 -20 -20 -19 -19 -19 -19 -19 -19 -18 -18 -18 -18 -18
-22 -22 -22 -22 -22 -22 -22 -22 -23 -22 -22 -21 -21 -22 -21 -23 -22 -22 -21 -21 -21 -20 -20 -20 -20 -21 -21 -21 -21 -21 -21 -21 -21 -21 -21 -21 -21 -20 -20 -20 -20 -19 -18 -18
-23 -23 -23 -23 -23 -23 -23 -23 -22 -23 -23 -23 -23 -23 -23 -23 -23 -23 -23 -23 -23 -22 -22 -22 -21 -22 -22 -22 -22 -22 -21 -22 -21 -21 -21 -22 -22 -21 -21 -21 -21 -21 -20 -19
-24 -24 -24 -24 -24 -24 -24 -23 -24 -24 -23 -24 -25 -25 -25 -25 -24 -24 -24 -24 -24 -24 -24 -24 -24 -24 -23 -23 -22 -22 -22 -22 -22 -22 -22 -22 -22 -22 -21 -21 -21 -21 -21 -21
-24 -24 -25 -25 -25 -25 -23 -24 -24 -24 -25 -25 -26 -26 -26 -26 -26 -25 -25 -25 -25 -25 -25 -25 -25 -25 -24 -24 -24 -23 -23 -23 -23 -23 -23 -23 -22 -22 -22 -22 -21 -21 -21 -20
-25 -26 -27 -27 -26 -26 -25 -27 -27 -28 -27 -27 -28 -28 -28 -28 -27 -27 -27 -27 -27 -27 -27 -26 -26 -26 -26 -26 -26 -26 -26 -26 -25 -25 -25 -24 -24 -23 -23 -22 -22 -22 -21 -21
-25 -26 -28 -28 -29 -29 -28 -29 -29 -29 -29 -29 -29 -29 -29 -29 -29 -28 -29 -29 -29 -29 -29 -28 -28 -28 -28 -28 -28 -28 -28 -28 -28 -28 -28 -27 -27 -26 -25 -24 -24 -24 -23 -23
-28 -28 -29 -29 -30 -30 -30 -30 -30 -31 -30 -30 -30 -30 -30 -30 -30 -30 -30 -30 -30 -30 -30 -30 -30 -29 -29 -29 -29 -29 -29 -29 -29 -29 -29 -29 -29 -28 -28 -28 -27 -26 -26 -26
-30 -30 -30 -31 -31 -31 -30 -31 -31 -31 -31 -31 -31 -31 -31 -31 -31 -31 -31 -30 -30 -30 -30 -30 -30 -30 -30 -30 -30 -30 -30 -30 -29 -29 -29 -29 -29 -29 -28 -28 -28 -28 -28 -27
-30 -30 -31 -31 -31 -31 -31 -32 -32 -32 -32 -31 -31 -31 -31 -31 -31 -31 -31 -31 -31 -31 -31 -31 -31 -31 -31 -31 -31 -30 -30 -30 -30 -30 -29 -29 -29 -29 -29 -29 -28 -28 -28 -27
-31 -31 -31 -32 -31 -32 -32 -32 -32 -32 -32 -32 -31 -32 -32 -32 -32 -32 -32 -33 -33 -33 -33 -33 -33 -32 -32 -32 -32 -32 -31 -31 -31 -30 -30 -30 -30 -30 -29 -29 -29 -29 -29 -29
-31 -31 -32 -32 -31 -32 -32 -32 -32 -32 -32 -32 -32 -32 -32 -33 -33 -33 -34 -34 -34 -34 -34 -34 -33 -33 -33 -33 -33 -33 -33 -32 -32 -32 -31 -31 -31 -31 -30 -30 -30 -30 -30 -29
-32 -32 -33 -32 -32 -33 -31 -32 -32 -32 -32 -33 -33 -33 -34 -35 -35 -35 -35 -35 -35 -35 -34 -35 -34 -34 -34 -33 -33 -33 -32 -32 -32 -32 -31 -31 -31 -31 -31 -31 -31 -31 -30 -30
Height
5809 5806 5808 5808 5804 5802 5799 5795 5792 5796 5795 5786 5790 5784 5784 5791 5794 5795 5793 5791 5790 5787 5785 5781 5780 5780 5778 5776 5776 5777 5779 5778 5778 5777 5777 5777 5778 5778 5778 5778 5777 5777 5778 5777
5800 5794 5796 5794 5794 5791 5789 5786 5783 5781 5782 5778 5774 5772 5776 5773 5781 5783 5781 5780 5778 5777 5776 5774 5770 5769 5769 5770 5769 5768 5768 5767 5766 5765 5765 5766 5766 5767 5766 5767 5766 5766 5766 5767
5787 5785 5784 5783 5780 5780 5780 5773 5773 5768 5768 5766 5763 5760 5759 5767 5766 5768 5768 5769 5767 5766 5765 5767 5765 5761 5759 5759 5760 5758 5757 5757 5757 5755 5754 5754 5754 5754 5754 5754 5753 5752 5751 5752
5772 5775 5773 5769 5767 5769 5764 5766 5762 5760 5755 5752 5753 5747 5749 5751 5755 5751 5751 5753 5753 5756 5756 5754 5753 5753 5752 5749 5747 5748 5747 5746 5746 5745 5744 5743 5742 5743 5740 5738 5738 5738 5738 5738
5762 5760 5759 5758 5758 5753 5752 5751 5751 5749 5746 5741 5739 5740 5736 5739 5741 5739 5736 5736 5736 5739 5739 5741 5743 5743 5741 5740 5739 5736 5735 5734 5734 5735 5734 5733 5732 5732 5731 5731 5729 5726 5723 5722
5748 5747 5745 5743 5743 5741 5741 5739 5735 5733 5732 5731 5730 5729 5726 5726 5727 5726 5722 5721 5719 5720 5723 5726 5729 5727 5728 5727 5726 5726 5723 5722 5720 5718 5718 5719 5720 5718 5718 5718 5719 5717 5716 5713
5733 5732 5733 5732 5730 5728 5727 5724 5723 5723 5720 5720 5718 5715 5714 5711 5714 5717 5714 5711 5709 5710 5711 5710 5709 5710 5709 5711 5711 5711 5711 5710 5708 5707 5706 5704 5703 5703 5703 5704 5704 5704 5702 5700
5717 5721 5721 5721 5716 5714 5714 5713 5712 5703 5703 5705 5706 5704 5702 5698 5696 5695 5698 5698 5696 5692 5691 5691 5690 5690 5692 5694 5693 5693 5693 5692 5692 5690 5689 5688 5686 5685 5685 5684 5684 5686 5686 5685
5703 5706 5705 5708 5704 5703 5701 5699 5698 5689 5690 5681 5690 5695 5690 5687 5682 5680 5679 5679 5679 5679 5672 5672 5671 5670 5670 5671 5670 5671 5672 5672 5671 5673 5672 5669 5666 5664 5662 5663 5663 5665 5665 5665
5686 5684 5691 5692 5693 5694 5688 5686 5682 5678 5671 5664 5669 5670 5677 5680 5668 5664 5664 5662 5661 5659 5658 5653 5654 5653 5652 5651 5652 5652 5651 5649 5648 5648 5648 5648 5648 5649 5648 5645 5642 5643 5644 5646
5670 5667 5676 5673 5679 5680 5671 5667 5667 5663 5658 5647 5646 5651 5671 5660 5655 5650 5648 5644 5644 5642 5639 5637 5633 5632 5631 5630 5629 5629 5629 5628 5628 5629 5627 5626 5626 5627 5627 5628 5628 5625 5623 5623
5659 5646 5647 5655 5660 5656 5653 5650 5649 5640 5639 5637 5628 5626 5644 5642 5636 5633 5627 5625 5621 5619 5619 5618 5614 5612 5610 5609 5609 5607 5607 5608 5606 5604 5607 5606 5606 5606 5606 5607 5606 5606 5606 5605
5641 5633 5628 5631 5641 5639 5632 5632 5629 5626 5618 5614 5611 5608 5615 5618 5614 5609 5607 5606 5602 5597 5595 5594 5592 5591 5588 5587 5586 5584 5583 5583 5584 5583 5582 5582 5583 5584 5584 5584 5584 5584 5585 5585
5623 5619 5618 5614 5617 5617 5614 5615 5615 5611 5603 5598 5594 5598 5601 5600 5596 5593 5589 5586 5581 5576 5572 5568 5567 5567 5565 5562 5561 5560 5559 5558 5557 5557 5556 5555 5554 5556 5559 5559 5559 5560 5561 5562
5604 5598 5602 5599 5598 5596 5595 5596 5599 5591 5586 5574 5580 5577 5582 5574 5575 5571 5566 5565 5563 5557 5552 5548 5545 5541 5538 5537 5536 5534 5532 5532 5531 5530 5530 5530 5530 5529 5529 5530 5531 5531 5533 5534
5590 5581 5578 5575 5580 5572 5565 5574 5576 5572 5566 5557 5555 5548 5554 5548 5549 5546 5545 5542 5541 5537 5532 5529 5525 5520 5516 5512 5510 5508 5504 5503 5501 5500 5500 5501 5503 5503 5501 5501 5503 5504 5505 5507
5570 5566 5560 5550 5558 5548 5538 5560 5549 5545 5549 5541 5527 5530 5524 5520 5522 5523 5519 5517 5516 5512 5510 5507 5502 5498 5494 5489 5483 5479 5477 5474 5472 5471 5471 5470 5470 5473 5472 5472 5472 5475 5476 5478
5548 5546 5535 5527 5529 5513 5530 5527 5523 5519 5518 5515 5505 5501 5499 5496 5496 5500 5495 5492 5491 5486 5484 5481 5477 5475 5469 5464 5459 5453 5449 5444 5440 5437 5438 5438 5437 5438 5439 5440 5440 5444 5444 5446
5530 5521 5508 5503 5500 5492 5498 5502 5496 5491 5494 5488 5482 5477 5474 5470 5470 5478 5469 5467 5464 5460 5457 5453 5449 5447 5443 5438 5430 5425 5423 5416 5411 5405 5403 5403 5401 5401 5401 5401 5404 5409 5410 5414
5505 5498 5489 5483 5476 5471 5479 5478 5475 5471 5465 5467 5460 5457 5452 5446 5444 5453 5452 5445 5441 5435 5430 5427 5423 5418 5415 5411 5404 5399 5394 5388 5382 5377 5373 5370 5367 5365 5365 5364 5365 5367 5368 5376
5483 5479 5473 5466 5457 5454 5463 5460 5457 5452 5453 5445 5441 5440 5436 5429 5426 5427 5427 5421 5417 5412 5408 5404 5400 5398 5393 5386 5376 5372 5365 5359 5350 5346 5343 5340 5338 5336 5334 5331 5332 5330 5331 5332
5465 5461 5457 5450 5444 5443 5446 5440 5439 5436 5431 5427 5424 5421 5415 5412 5409 5405 5402 5400 5394 5390 5384 5378 5372 5370 5365 5357 5346 5342 5338 5330 5323 5317 5314 5310 5307 5304 5303 5300 5300 5297 5296 5298
5449 5447 5435 5437 5432 5435 5427 5424 5422 5419 5413 5415 5410 5408 5401 5397 5393 5389 5384 5379 5374 5368 5362 5356 5349 5344 5340 5330 5319 5311 5308 5297 5291 5286 5282 5275 5270 5269 5268 5265 5266 5264 5264 5263
5437 5430 5422 5417 5428 5418 5415 5412 5407 5404 5399 5397 5393 5389 5385 5380 5376 5372 5366 5360 5353 5347 5341 5334 5326 5320 5314 5305 5295 5283 5277 5267 5259 5254 5251 5244 5237 5235 5232 5231 5230 5229 5232 5231
5425 5414 5412 5403 5411 5401 5403 5396 5391 5388 5384 5381 5377 5372 5367 5364 5360 5354 5349 5343 5336 5328 5321 5312 5303 5295 5288 5279 5270 5259 5248 5239 5232 5225 5220 5213 5207 5203 5201 5198 5197 5196 5199 5198
5409 5401 5394 5391 5396 5383 5388 5381 5377 5373 5369 5365 5361 5356 5352 5348 5344 5339 5333 5326 5319 5311 5302 5292 5284 5275 5264 5254 5246 5235 5223 5215 5207 5201 5195 5189 5183 5180 5175 5172 5171 5169 5167 5169
Wind_Speed
50 53 50 45 47 47 50 52 51 46 46 52 48 52 49 42 39 35 33 35 37 39 38 39 35 37 38 36 34 31 29 31 32 35 35 35 35 36 36 36 38 39 38 37
51 54 49 49 48 49 51 55 56 54 51 53 54 52 51 52 42 40 36 34 35 34 33 34 33 37 34 40 41 38 36 34 33 35 36 35 35 36 39 41 42 42 41 41
50 54 53 51 51 50 51 56 57 61 57 56 57 57 56 49 47 40 38 34 34 36 37 37 40 41 43 39 40 41 32 33 34 33 33 34 34 37 39 40 43 47 48 46
50 47 50 53 53 47 57 52 54 57 61 59 58 61 58 55 50 52 48 41 40 39 38 39 40 42 47 45 37 36 38 40 41 41 40 39 40 40 43 44 43 44 47 50
50 53 54 57 56 56 58 57 58 60 62 65 62 62 63 58 56 53 53 48 49 44 43 42 40 42 45 48 46 49 51 50 48 46 45 46 47 48 47 45 46 48 50 51
53 52 54 53 54 57 60 62 63 64 61 66 63 62 69 63 59 49 45 36 39 33 33 38 42 46 49 53 54 55 55 54 53 50 48 47 52 52 50 51 52 50 49 52
51 49 48 49 52 51 50 52 57 60 62 62 63 65 66 67 64 56 45 44 53 56 55 55 53 53 57 55 56 56 58 60 58 56 55 54 54 55 55 56 57 58 56 57
49 47 46 47 49 52 49 50 51 51 58 62 61 64 65 65 65 68 64 64 66 65 64 59 60 58 58 56 57 60 60 62 64 63 59 61 60 58 58 59 59 60 61 62
53 48 51 50 52 52 55 57 56 61 63 67 64 63 65 66 67 64 64 64 64 65 62 65 69 71 69 63 62 62 63 64 65 67 68 68 69 68 67 65 64 62 63 64
63 68 67 61 61 62 60 60 63 65 67 68 67 72 68 64 65 64 64 64 64 67 69 69 69 71 70 69 70 68 69 68 67 63 64 65 68 69 70 68 69 69 68 66
59 61 69 63 65 61 62 66 66 62 52 56 60 64 59 67 74 76 76 72 67 66 67 70 69 66 66 61 61 66 66 66 65 62 62 63 62 62 62 67 72 69 68 72
58 63 65 65 58 58 59 60 59 66 69 74 81 82 75 75 71 66 66 64 65 61 61 66 72 73 76 77 77 74 68 69 73 70 62 68 65 66 66 69 75 78 74 72
61 64 64 62 64 66 64 60 56 53 60 63 63 62 51 44 54 57 59 63 68 72 69 72 79 83 82 82 81 82 80 74 78 82 78 75 76 76 78 80 79 81 80 78
60 63 64 66 64 64 61 55 47 49 52 51 49 58 60 62 68 72 73 72 75 79 83 83 85 89 89 89 87 86 83 82 82 87 91 92 91 91 86 86 87 86 87 84
62 64 64 65 66 68 67 67 65 72 72 75 79 81 78 76 75 77 76 75 80 86 90 92 96 94 93 90 89 87 84 82 83 85 87 85 90 87 87 82 80 89 94 93
61 65 67 70 68 71 75 72 73 75 76 82 83 84 81 81 79 80 82 83 83 84 88 90 92 93 91 90 92 91 91 89 91 95 96 93 89 85 81 76 77 75 86 94
64 67 70 75 72 77 83 75 79 80 78 80 84 81 81 83 82 81 83 83 82 83 84 85 87 89 91 93 98 99 99 101 99 98 100 103 100 99 93 90 84 86 86 86
74 75 77 81 79 86 84 80 81 82 81 81 82 82 83 84 84 85 85 86 86 87 87 88 90 92 94 96 98 101 103 104 105 106 103 103 105 106 107 104 101 101 98 101
76 76 77 79 81 85 84 76 76 76 77 76 76 78 78 78 81 80 80 81 83 83 86 88 90 93 95 95 97 99 100 102 103 104 105 105 105 107 109 109 111 106 105 111
81 76 71 72 72 74 70 67 66 65 69 67 68 68 69 71 73 71 69 71 71 73 75 77 79 81 81 82 84 86 88 90 91 94 96 98 99 101 102 105 107 108 109 108
67 64 64 63 65 66 59 57 57 57 58 58 61 62 63 65 66 66 64 66 68 70 72 74 76 77 79 81 85 86 88 89 92 92 92 92 92 91 92 94 96 99 101 101
57 57 58 57 58 59 54 54 52 51 52 55 56 58 60 62 63 65 67 68 71 73 75 77 79 79 79 81 85 87 88 90 92 93 93 93 93 93 93 94 94 95 96 96
52 51 55 54 52 48 50 50 50 50 54 53 57 58 62 63 65 67 69 69 70 72 73 74 77 79 80 81 84 88 87 89 90 90 91 92 93 92 92 93 93 96 97 98
45 47 51 53 44 47 48 50 52 53 56 57 59 60 61 63 65 65 65 66 67 68 69 72 74 76 77 79 82 84 86 87 88 87 85 85 86 86 86 87 88 90 91 94
41 47 46 49 43 49 47 51 54 56 57 58 59 59 59 60 60 62 62 62 63 65 67 70 72 74 74 75 75 76 77 78 77 76 75 76 77 77 78 79 80 83 84 88
40 44 48 49 45 51 50 53 55 54 56 56 56 56 56 56 55 56 57 60 61 62 65 65 65 64 64 65 64 64 66 66 66 64 63 62 62 62 64 66 67 71 76 79
Wind_Direction
276 278 283 281 276 279 282 283 285 289 288 283 281 286 288 286 281 279 277 273 273 275 275 270 272 274 275 275 271 267 264 261 260 261 264 266 267 264 268 270 272 274 269 267
275 275 277 275 276 276 279 283 282 284 281 279 283 281 284 284 287 282 276 275 276 273 269 267 269 271 264 279 278 274 273 267 261 258 258 259 258 262 265 267 269 270 269 266
271 273 274 275 272 273 276 276 281 283 283 282 282 283 280 283 286 281 276 274 268 268 272 265 271 267 265 269 268 267 262 269 269 263 259 257 254 253 256 261 265 266 264 263
266 268 270 271 272 274 270 273 274 277 280 281 281 282 283 286 285 282 280 276 273 271 267 266 264 263 266 265 261 255 268 275 279 276 269 263 258 254 252 251 252 257 261 263
271 269 268 270 270 267 268 271 272 272 273 277 277 280 283 283 283 284 287 286 279 273 270 268 259 260 258 260 261 264 267 273 274 277 278 277 276 276 270 260 255 254 254 257
271 270 272 272 272 272 273 272 270 269 269 272 274 277 279 283 283 291 286 276 272 269 263 260 269 266 259 257 261 267 266 268 273 273 272 276 280 275 270 270 270 267 263 263
273 273 273 272 272 272 273 276 277 274 269 269 271 270 271 277 279 279 276 267 272 281 277 273 269 263 262 263 263 262 264 265 270 275 275 273 270 270 270 273 273 271 263 260
271 264 263 268 268 267 263 266 267 272 271 267 266 267 270 271 276 276 274 274 275 280 279 279 278 276 273 270 267 268 269 269 267 268 269 270 269 271 269 265 262 262 264 262
266 263 266 262 266 270 268 267 269 273 266 269 265 262 264 269 271 278 282 281 276 275 279 279 279 280 280 280 280 276 272 270 271 270 267 265 268 271 272 270 265 262 257 256
284 282 276 279 279 277 279 276 276 275 277 279 272 265 266 270 275 277 281 280 278 278 279 280 280 280 281 280 278 276 276 276 276 273 272 268 266 266 268 269 268 268 268 264
284 282 285 281 282 281 278 278 280 280 267 264 259 263 266 271 276 275 277 279 275 273 274 276 280 283 280 276 275 277 277 275 270 264 259 261 265 267 259 254 256 261 265 268
284 282 283 286 286 280 274 274 274 269 274 272 271 272 278 277 281 280 278 276 274 267 271 277 279 278 277 277 276 275 274 272 269 262 252 260 266 267 262 260 256 259 263 266
282 281 283 282 281 281 277 278 278 277 273 272 271 270 270 272 268 264 267 270 268 265 267 274 276 277 275 275 273 272 271 267 264 261 257 254 260 266 269 265 261 256 257 260
278 277 277 278 279 278 275 273 261 261 256 254 254 264 261 268 269 267 264 264 265 266 268 272 275 275 276 277 276 274 272 270 267 264 264 267 269 268 268 263 259 256 253 254
279 279 278 277 278 275 273 268 264 265 260 259 265 266 266 269 272 261 257 259 264 265 266 270 274 275 276 276 275 273 271 271 271 270 270 271 269 266 263 260 256 254 250 252
280 282 283 282 282 280 276 274 273 270 269 269 272 272 271 270 268 267 267 269 269 268 268 269 270 272 274 273 271 269 270 273 276 276 274 273 270 261 256 254 253 256 254 252
282 283 283 281 279 275 273 281 274 274 274 274 272 273 273 273 272 272 273 273 272 271 271 271 271 271 272 272 272 272 272 273 274 272 270 270 272 266 261 260 254 258 263 264
285 286 283 282 279 274 284 276 274 273 271 271 272 273 274 274 274 272 273 274 274 275 275 275 276 276 276 275 274 274 274 275 275 274 272 271 269 267 266 263 261 260 256 263
286 285 282 280 279 279 277 278 279 278 276 277 278 278 278 278 276 276 278 279 279 279 279 279 279 278 278 278 277 277 277 277 276 276 275 273 271 268 268 266 263 263 262 263
287 285 281 281 279 280 282 282 282 282 279 280 279 280 280 280 281 280 280 281 280 280 280 280 280 280 280 279 279 278 277 277 276 276 275 275 274 273 271 269 267 267 266 262
283 281 280 281 281 281 284 283 283 279 283 280 278 280 282 283 284 286 285 283 283 283 283 283 283 283 282 282 281 280 279 279 278 277 277 277 276 274 273 271 269 267 265 263
283 283 283 279 278 283 288 286 284 285 284 285 287 287 286 288 289 289 288 288 288 288 288 288 287 287 286 285 284 283 282 281 280 279 278 277 275 273 272 270 269 268 267 265
282 282 277 279 282 286 286 286 286 285 285 284 285 286 286 286 286 287 288 288 289 289 288 289 289 288 287 286 286 285 285 283 281 280 279 278 276 274 272 270 268 266 266 266
283 276 279 278 283 281 281 284 284 283 284 286 287 287 286 287 288 289 291 291 291 293 293 293 292 291 290 289 288 287 287 286 284 283 281 280 278 276 273 270 267 265 264 263
281 279 283 280 286 283 284 285 286 286 286 287 286 286 287 289 292 291 292 295 296 297 296 295 294 294 294 292 291 290 288 288 287 285 283 280 278 276 274 272 270 266 262 261
282 281 281 286 285 287 285 287 288 289 288 287 287 288 291 291 292 293 295 297 299 299 298 296 296 298 296 295 295 293 291 290 288 289 287 286 285 283 281 278 275 272 267 262